Weather History for Cincinnati, OH

Change the Weather History Date:

Friday, June 6, 2014

  Actual Average Record
Temperature  
Mean Temperature 64 °F -  
Max Temperature 79 °F 81 °F 94 °F (1988)
Min Temperature 51 °F 60 °F 42 °F (1998)
Growing Degree Days 14 (Base 50)    
Moisture  
Dew Point 52 °F    
Average Humidity 72    
Maximum Humidity 100    
Minimum Humidity 32    
Precipitation  
Precipitation 0.00 in - - ()
Sea Level Pressure  
Sea Level Pressure 30.00 in    
Wind  
Wind Speed 1 mph (NE)    
Max Wind Speed 10 mph    
Max Gust Speed -    
Visibility 9 miles    
Events      
Averages and records for this station are not official NWS values.
T = Trace of Precipitation, MM = Missing Value Source: NWS Daily Summary

Daily Weather History Graph

Daily Weather History Graph

Search for Another Location

Airport:

Trip Planner

Search our weather history database for the weather conditions in past years. The results will help you decide how hot, cold, wet, or windy it might be!

Date:

Astronomy

Jun. 06, 2014 Rise Set
Actual Time 6:12 AM EDT 9:01 PM EDT
Civil Twilight 5:40 AM EDT 9:32 PM EDT
Nautical Twilight 5:00 AM EDT 10:12 PM EDT
Astronomical Twilight 4:14 AM EDT 10:58 PM EDT
Moon 2:22 PM EDT (6/6) 2:00 AM EDT (6/6)
Length of Visible Light 15h 52m
Length of Day
14h 49m
First Quarter, 58% of the Moon is Illuminated
Jun 6
First Quarter
Jun 13
Full
Jun 19
Last Quarter
Jun 27
New
Jul 5
First Quarter

Hourly Weather History & Observations

Time (EDT) Temp. Dew Point Humidity Pressure Visibility Wind Dir Wind Speed Gust Speed Precip Events Conditions
12:53 AM 57.9 °F 55.9 °F 93% 29.98 in 10.0 mi Calm Calm - N/A   Clear
1:53 AM 55.9 °F 55.0 °F 97% 29.96 in 10.0 mi Calm Calm - N/A   Clear
2:53 AM 55.0 °F 54.0 °F 96% 29.95 in 10.0 mi Calm Calm - N/A   Clear
3:53 AM 54.0 °F 54.0 °F 100% 29.96 in 9.0 mi Calm Calm - N/A   Clear
4:34 AM 52.0 °F 52.0 °F 100% 29.98 in 1.8 mi Calm Calm - N/A   Clear
4:46 AM 53.1 °F 53.1 °F 100% 29.98 in 3.0 mi Calm Calm - N/A   Clear
4:53 AM 54.0 °F 54.0 °F 100% 29.98 in 7.0 mi Calm Calm - N/A   Clear
5:53 AM 53.1 °F 52.0 °F 96% 30.00 in 9.0 mi Calm Calm - N/A   Clear
6:07 AM 51.8 °F 51.8 °F 100% 30.02 in 1.8 mi Calm Calm - N/A   Clear
6:18 AM 52.0 °F 52.0 °F 100% 30.02 in 3.0 mi Calm Calm - N/A   Clear
6:53 AM 53.1 °F 53.1 °F 100% 30.02 in 10.0 mi Calm Calm - N/A   Clear
7:53 AM 57.9 °F 55.9 °F 93% 30.01 in 10.0 mi NE 3.5 mph - N/A   Clear
8:53 AM 64.0 °F 57.0 °F 78% 30.01 in 10.0 mi Calm Calm - N/A   Clear
9:53 AM 69.1 °F 55.9 °F 63% 30.03 in 10.0 mi Calm Calm - N/A   Clear
10:53 AM 73.4 °F 48.2 °F 41% 30.03 in 10.0 mi ESE 8.1 mph - N/A   Clear
11:53 AM 73.0 °F 46.9 °F 39% 30.02 in 10.0 mi Variable 3.5 mph - N/A   Clear
12:53 PM 75.9 °F 48.0 °F 37% 30.01 in 10.0 mi NE 10.4 mph - N/A   Clear
1:53 PM 75.9 °F 46.9 °F 36% 30.01 in 10.0 mi NE 8.1 mph - N/A   Clear
2:53 PM 77.0 °F 46.0 °F 33% 30.00 in 10.0 mi North - - N/A   Clear
3:53 PM 78.1 °F 46.9 °F 33% 29.98 in 10.0 mi NNE 6.9 mph - N/A   Clear
5:53 PM 78.1 °F 46.0 °F 32% 29.96 in 10.0 mi NE 8.1 mph - N/A   Clear
6:53 PM 77.0 °F 48.0 °F 36% 29.96 in 10.0 mi NE 5.8 mph - N/A   Clear
7:53 PM 75.9 °F 46.9 °F 36% 29.99 in 10.0 mi East 3.5 mph - N/A   Clear
8:53 PM 68.0 °F 55.0 °F 63% 29.99 in 10.0 mi Calm Calm - N/A   Clear
9:53 PM 62.1 °F 54.0 °F 75% 30.01 in 10.0 mi Calm Calm - N/A   Clear
10:53 PM 59.0 °F 53.1 °F 81% 30.01 in 10.0 mi Calm Calm - N/A   Clear
11:53 PM 55.9 °F 53.1 °F 90% 30.01 in 10.0 mi Calm Calm - N/A   Clear